Find Starlink 35640

NORAD ID: 66536 Int'l Des: 2025-265 Owner: SPXS Country: US Constellation: starlink operational
LEOCIRCULAR

現在のビュー

3D地球を読み込み中...

Starlink 35640について

説明を読み込み中...

次回通過

Passes for default location (London). Set your location on the main map for personalized predictions.

高度履歴

Loading altitude history...

軌道要素

1 66536U 25265W 26149.45284822 .00033349 00000-0 12155-2 0 9991
2 66536 42.9975 181.9513 0001394 273.7899 86.2793 15.27590433 29469
Epoch: May 29, 2026 • Age: 26 hours

現在のステータス

高度 483.9 km
速度 7.63 km/s
衛星直下点 28.45°N, 115.96°W
打ち上げ日 Nov 19, 2025
運用期間 0.5 years
タイプ internet

技術仕様

分類 Payload
質量 575.00 kg
乾燥質量 530.00 kg
総質量 575.00 kg
長さ 0.30 m
直径 4.10 m
スパン 29.00 m
形状 Box + pan
製造者 SPXS
バスタイプ Starlink V2MO
フェーズステータス In Orbit
所有者/国 SPXS/US

Most Searched